Tracking 19638 objects as of 18-Apr-2019
HD Live streaming from Space Station
objects crossing your sky now

CBERS 1 DEB

Track CBERS 1 DEB now!
10-day predictions


NORAD ID: 32079
Int'l Code: 1999-057QT
Perigee: 764.6 km
Apogee: 774.5 km
Inclination: 98.6 °
Period: 100.1 minutes
Semi major axis: 7140 km
RCS: 0.007 m2 (small)
Launch date: October 14, 1999
Source: China/Brazil (CHBZ)
Launch site: Taiyaun Space Center, China (TSC)

Note: This is SATELLITE DEBRIS
aabbcc
Your satellite tracking list
Your tracking list is empty




NASA's NSSDC Master Catalog

Two Line Element Set (TLE):
1 32079U 99057QT  19106.66185743 +.00000155 +00000-0 +64875-4 0  9993
2 32079 098.5552 056.1454 0006960 131.7785 228.3998 14.38808931621145
Source of the keplerian elements: AFSPC